Location: Bakov nad Jizerou
(50.4784°N, 14.9394°E)
Time: 03:50:52
(UTC+00:00)

NOSS 3-1 (C) - Visible Passes

Search period start: 17 October 2021 00:00
Search period end: 27 October 2021 00:00
Orbit: 718 x 1490 km, 63.4° (Epoch: 09 October)

Date Brightness Start Highest point End Pass type
(mag) Time Alt. Az. Time Alt. Az. Time Alt. Az.
17 Oct 5.2 00:28:53 35° NE 00:28:53 35° NE 00:35:15 10° E visible
17 Oct 4.0 02:16:20 35° NW 02:19:57 79° NE 02:28:32 10° SE visible
17 Oct 4.7 04:03:54 10° NW 04:10:38 35° WSW 04:18:15 10° S visible
17 Oct 4.2 18:02:14 10° S 18:05:09 26° SE 18:05:09 26° SE visible
17 Oct 5.4 19:51:43 10° WSW 19:52:39 16° WSW 19:52:39 16° WSW visible
17 Oct 5.8 23:45:54 21° ENE 23:45:54 21° ENE 23:48:56 10° ENE visible
18 Oct 4.3 01:33:22 56° N 01:34:24 61° NE 01:42:45 10° ESE visible
18 Oct 4.2 03:20:50 23° WNW 03:25:26 50° WSW 03:33:42 10° SSE visible
18 Oct 4.4 17:18:19 10° SSE 17:21:58 19° ESE 17:22:30 19° ESE visible
18 Oct 3.8 19:06:20 10° SW 19:09:59 47° SW 19:09:59 47° SW visible
19 Oct 4.9 00:50:37 41° ENE 00:50:37 41° ENE 00:56:43 10° ESE visible
19 Oct 3.9 02:38:06 51° WNW 02:40:09 68° SW 02:48:44 10° SSE visible
19 Oct 5.3 04:25:36 12° WNW 04:30:16 20° WSW 04:35:55 10° SSW visible
19 Oct 5.0 16:36:05 10° ESE 16:37:15 11° ESE 16:38:27 10° E visible
19 Oct 3.1 18:21:14 10° SSW 18:26:27 62° SE 18:27:09 57° E visible
19 Oct 5.2 20:12:18 10° W 20:14:36 24° W 20:14:36 24° W visible
20 Oct 5.9 00:08:05 19° E 00:08:05 19° E 00:10:31 10° E visible
20 Oct 4.0 01:55:35 75° SE 01:55:35 75° SE 02:03:25 10° SE visible
20 Oct 4.8 03:43:06 26° W 03:45:15 29° WSW 03:52:21 10° SSW visible
20 Oct 3.6 17:36:29 10° S 17:41:22 39° ESE 17:44:07 25° ENE visible
20 Oct 4.0 19:26:35 10° WSW 19:31:33 52° NW 19:31:33 52° NW visible
21 Oct 5.2 01:13:14 34° ESE 01:13:14 34° ESE 01:17:46 10° SE visible
21 Oct 4.4 03:00:46 41° SW 03:00:46 41° SW 03:08:05 10° S visible
21 Oct 4.2 16:52:12 10° SSE 16:56:26 25° ESE 17:00:53 11° ENE visible
21 Oct 3.4 18:41:05 10° SW 18:46:29 74° NW 18:48:20 46° NNE visible
21 Oct 5.4 20:33:13 10° WNW 20:35:46 23° WNW 20:35:46 23° WNW visible
22 Oct 6.2 00:31:00 13° ESE 00:31:00 13° ESE 00:31:52 10° ESE visible
22 Oct 5.0 02:18:32 34° S 02:18:32 34° S 02:23:20 10° SSE visible
22 Oct 5.5 04:06:04 15° WSW 04:06:04 15° WSW 04:09:15 10° SW visible
22 Oct 3.1 17:55:49 10° SW 18:01:08 78° SE 18:04:55 25° NE visible
22 Oct 4.7 19:47:19 10° W 19:52:21 36° NNW 19:52:21 36° NNW visible
23 Oct 5.9 01:36:21 18° SSE 01:36:21 18° SSE 01:38:12 10° SSE visible
23 Oct 5.6 03:23:53 17° SSW 03:23:53 17° SSW 03:26:15 10° SSW visible
23 Oct 3.4 17:10:52 10° SSW 17:15:57 51° ESE 17:21:23 13° NE visible
23 Oct 4.2 19:01:31 10° WSW 19:06:54 46° NNW 19:08:48 36° NNE visible
23 Oct 5.7 20:54:10 10° WNW 20:56:13 19° NW 20:56:13 19° NW visible
24 Oct 6.0 02:41:39 12° S 02:41:39 12° S 02:42:19 10° S visible
24 Oct 4.0 16:26:19 10° S 16:30:57 32° ESE 16:36:15 10° NE visible
24 Oct 3.7 18:15:54 10° WSW 18:21:19 61° NW 18:25:09 24° NE visible
24 Oct 5.1 20:08:17 10° WNW 20:12:34 28° NNW 20:12:34 28° NNW visible
25 Oct 3.3 17:30:29 10° SW 17:35:52 86° NW 17:41:25 14° NE visible
25 Oct 4.8 19:22:22 10° W 19:27:37 33° NNW 19:28:49 31° N visible
25 Oct 6.0 21:14:55 10° NW 21:16:13 15° NW 21:16:13 15° NW visible
26 Oct 3.3 16:45:21 10° SSW 16:50:36 64° SE 16:56:51 10° NE visible
26 Oct 4.5 18:36:30 10° W 18:41:50 40° NNW 18:45:00 25° NNE visible
26 Oct 5.5 20:29:11 10° WNW 20:32:24 23° NNW 20:32:24 23° NNW visible
